Location: ?????????
(41.1143°N, 22.7905°E)
Time: 02:19:27
(UTC+00:00)

Cosmos 2227 Rocket - Pass Details

Date: 13 December 2025
Orbit: 838 x 843 km, 71.0° (Epoch: 12 January)

Event Time Altitude Azimuth Distance (km) Brightness Sun altitude
Rises 16:25:07 0° 332° (NNW) 3,401 5.5 -15.3°
Reaches altitude 10° 16:27:36 10° 328° (NNW) 2,463 4.8 -15.8°
Maximum altitude 16:33:06 56° 252° (WSW) 990 2.9 -16.8°
Drops below altitude 10° 16:38:35 10° 175° (S) 2,450 4.7 -17.8°
Sets 16:41:04 0° 171° (S) 3,382 5.4 -18.2°
